Weather History for KBCK - January, 2013

Change the Weather History Date:

Saturday, January 12, 2013

  Actual Average (KLSE) Record (KLSE)
Temperature  
Mean Temperature 30 °F 17 °F  
Max Temperature 46 °F 25 °F 50 °F (1928)
Min Temperature 14 °F 9 °F -34 °F (1912)
Degree Days  
Heating Degree Days 34 48  
Month to date heating degree days 572  
Since 1 July heating degree days 3416  
Cooling Degree Days 0 0  
Month to date cooling degree days 0  
Year to date cooling degree days 0  
Moisture  
Dew Point 21 °F    
Average Humidity 74    
Maximum Humidity 100    
Minimum Humidity 59    
Precipitation  
Precipitation 0.00 in 0.03 in 0.73 in (1993)
Month to date precipitation 0.41  
Year to date precipitation 0.41  
Snow  
Snow 0.00 in 0.30 in 7.20 in (1993)
Month to date snowfall 3.5  
Since 1 July snowfall 19.1  
Snow Depth -    
Sea Level Pressure  
Sea Level Pressure 29.80 in    
Wind  
Wind Speed 9 mph (WSW)    
Max Wind Speed 22 mph    
Max Gust Speed 36 mph    
Visibility 10 miles    
Events Snow    
T = Trace of Precipitation, MM = Missing Value Source: NWS Daily Summary

Daily Weather History Graph

Daily Weather History Graph

Search for Another Location

Airport or City:

Trip Planner

Search our weather history database for the weather conditions in past years. The results will help you decide how hot, cold, wet, or windy it might be!

Date:

Astronomy

Jan. 12, 2013 Rise Set
Actual Time 7:36 AM CST 4:47 PM CST
Civil Twilight 7:04 AM CST 5:19 PM CST
Nautical Twilight 6:28 AM CST 5:55 PM CST
Astronomical Twilight 5:53 AM CST 6:30 PM CST
Moon 7:52 AM CST (1/12) 6:20 PM CST (1/12)
Length of Visible Light 10h 15m
Length of Day
9h 10m
New Moon, 1% of the Moon is Illuminated
Jan 12
New Moon
Jan 18
First Quarter
Jan 26
Full
Feb 3
Last Quarter
Feb 10
New

Hourly Weather History & Observations

Time (CST) Temp. Windchill Dew Point Humidity Pressure Visibility Wind Dir Wind Speed Gust Speed Precip Events Conditions
12:15 AM 42.8 °F 41.1 °F 42.8 °F 100% 29.46 in 7.0 mi South 3.5 mph - N/A   Clear
12:55 AM 42.8 °F - 42.8 °F 100% 29.46 in 10.0 mi Calm Calm - N/A   Clear
1:15 AM 42.8 °F - 42.8 °F 100% 29.46 in 10.0 mi Calm Calm - N/A   Clear
1:35 AM 42.8 °F 40.1 °F 42.8 °F 100% 29.45 in 10.0 mi South 4.6 mph - N/A   Scattered Clouds
1:55 AM 42.8 °F 40.1 °F 42.8 °F 100% 29.45 in 10.0 mi South 4.6 mph - N/A   Overcast
2:15 AM 44.6 °F 41.4 °F 44.6 °F 100% 29.46 in 10.0 mi SSW 5.8 mph - N/A   Overcast
2:35 AM 44.6 °F 41.4 °F 44.6 °F 100% 29.46 in 10.0 mi SSW 5.8 mph - N/A   Overcast
2:55 AM 44.6 °F 41.4 °F 44.6 °F 100% 29.47 in 10.0 mi SW 5.8 mph - N/A   Overcast
3:15 AM 46.4 °F 41.1 °F 42.8 °F 87% 29.47 in 10.0 mi WSW 11.5 mph 21.9 mph N/A   Overcast
3:35 AM 46.4 °F 40.7 °F 42.8 °F 87% 29.49 in 10.0 mi SW 12.7 mph 21.9 mph N/A   Overcast
3:55 AM 44.6 °F 38.1 °F 41.0 °F 87% 29.49 in 10.0 mi SW 13.8 mph 23.0 mph N/A   Overcast
4:15 AM 44.6 °F 38.4 °F 39.2 °F 81% 29.50 in 10.0 mi SW 12.7 mph 17.3 mph N/A   Mostly Cloudy
4:35 AM 42.8 °F 34.5 °F 37.4 °F 81% 29.52 in 10.0 mi WSW 18.4 mph 25.3 mph N/A   Overcast
4:55 AM 42.8 °F 36.2 °F 33.8 °F 70% 29.54 in 10.0 mi WSW 12.7 mph 26.5 mph N/A   Overcast
5:15 AM 41.0 °F 31.9 °F 32.0 °F 70% 29.57 in 10.0 mi WSW 19.6 mph 32.2 mph N/A   Overcast
5:35 AM 39.2 °F 32.5 °F 32.0 °F 75% 29.58 in 10.0 mi WSW 10.4 mph 23.0 mph N/A   Overcast
5:55 AM 35.6 °F 24.8 °F 30.2 °F 81% 29.61 in 10.0 mi WSW 19.6 mph 35.7 mph N/A   Overcast
6:15 AM 35.6 °F 27.5 °F 30.2 °F 81% 29.62 in 10.0 mi SW 11.5 mph 24.2 mph N/A   Overcast
6:35 AM 33.8 °F 23.2 °F 28.4 °F 81% 29.65 in 10.0 mi WSW 17.3 mph 34.5 mph N/A   Overcast
6:55 AM 32.0 °F 23.0 °F 28.4 °F 87% 29.67 in 10.0 mi West 11.5 mph 27.6 mph N/A   Overcast
7:15 AM 32.0 °F 20.5 °F 24.8 °F 75% 29.71 in 10.0 mi WSW 18.4 mph 29.9 mph N/A   Overcast
7:35 AM 30.2 °F 18.5 °F 23.0 °F 75% 29.71 in 10.0 mi WSW 17.3 mph 25.3 mph N/A   Overcast
7:55 AM 30.2 °F 18.5 °F 21.2 °F 69% 29.73 in 10.0 mi WSW 17.3 mph 33.4 mph N/A   Overcast
8:15 AM 30.2 °F 17.1 °F 21.2 °F 69% 29.76 in 10.0 mi West 21.9 mph 34.5 mph N/A   Overcast
8:35 AM 28.4 °F 15.4 °F 21.2 °F 74% 29.77 in 10.0 mi West 19.6 mph 31.1 mph N/A   Overcast
8:55 AM 28.4 °F 15.8 °F 19.4 °F 69% 29.78 in 10.0 mi SW 18.4 mph 26.5 mph N/A   Overcast
9:15 AM 28.4 °F 14.7 °F 19.4 °F 69% 29.78 in 10.0 mi WSW 21.9 mph 29.9 mph N/A   Overcast
9:35 AM 26.6 °F 17.5 °F 17.6 °F 69% 29.80 in 10.0 mi WSW 9.2 mph 26.5 mph N/A   Overcast
9:55 AM 26.6 °F 16.2 °F 17.6 °F 69% 29.81 in 10.0 mi WSW 11.5 mph - N/A   Overcast
10:15 AM 26.6 °F 16.8 °F 17.6 °F 69% 29.84 in 10.0 mi WSW 10.4 mph 18.4 mph N/A   Overcast
10:35 AM 26.6 °F 16.2 °F 17.6 °F 69% 29.84 in 10.0 mi West 11.5 mph 19.6 mph N/A   Overcast
10:55 AM 26.6 °F 15.7 °F 15.8 °F 64% 29.85 in 10.0 mi WSW 12.7 mph 23.0 mph N/A   Overcast
11:15 AM 26.6 °F 13.8 °F 14.0 °F 59% 29.86 in 10.0 mi WSW 17.3 mph 24.2 mph N/A   Overcast
11:35 AM 24.8 °F 12.4 °F 14.0 °F 64% 29.88 in 10.0 mi WSW 15.0 mph 23.0 mph N/A   Overcast
12:15 PM 23.0 °F 11.7 °F 14.0 °F 68% 29.86 in 10.0 mi WSW 11.5 mph 21.9 mph N/A   Overcast
12:35 PM 23.0 °F 13.1 °F 14.0 °F 68% 29.87 in 10.0 mi WSW 9.2 mph 18.4 mph N/A   Overcast
12:55 PM 23.0 °F 13.1 °F 14.0 °F 68% 29.87 in 10.0 mi WSW 9.2 mph 20.7 mph N/A   Overcast
1:15 PM 23.0 °F 12.4 °F 12.2 °F 63% 29.88 in 10.0 mi WSW 10.4 mph 18.4 mph N/A   Mostly Cloudy
1:55 PM 23.0 °F 11.7 °F 12.2 °F 63% 29.91 in 10.0 mi WSW 11.5 mph 19.6 mph N/A   Mostly Cloudy
2:15 PM 23.0 °F 11.1 °F 12.2 °F 63% 29.92 in 10.0 mi WSW 12.7 mph - N/A   Mostly Cloudy
2:35 PM 23.0 °F 12.4 °F 12.2 °F 63% 29.93 in 10.0 mi WSW 10.4 mph 16.1 mph N/A   Mostly Cloudy
3:15 PM 21.2 °F 10.1 °F 12.2 °F 68% 29.93 in 10.0 mi WSW 10.4 mph - N/A   Mostly Cloudy
3:35 PM 21.2 °F 9.5 °F 12.2 °F 68% 29.93 in 10.0 mi West 11.5 mph 18.4 mph N/A   Overcast
3:55 PM 21.2 °F 10.9 °F 12.2 °F 68% 29.93 in 10.0 mi WSW 9.2 mph - N/A   Overcast
4:15 PM 21.2 °F 10.1 °F 10.4 °F 63% 29.96 in 10.0 mi WSW 10.4 mph - N/A   Overcast
4:35 PM 21.2 °F 11.7 °F 10.4 °F 63% 29.97 in 10.0 mi WSW 8.1 mph - N/A   Overcast
4:55 PM 21.2 °F 11.7 °F 12.2 °F 68% 29.98 in 10.0 mi West 8.1 mph - N/A   Overcast
5:15 PM 21.2 °F 10.9 °F 10.4 °F 63% 29.98 in 10.0 mi WSW 9.2 mph 17.3 mph N/A   Overcast
5:35 PM 21.2 °F 11.7 °F 10.4 °F 63% 29.97 in 10.0 mi WSW 8.1 mph - N/A   Overcast
5:55 PM 21.2 °F 10.1 °F 12.2 °F 68% 29.98 in 10.0 mi West 10.4 mph - N/A Snow Light Snow
6:15 PM 21.2 °F 10.1 °F 12.2 °F 68% 29.97 in 10.0 mi WSW 10.4 mph - N/A Snow Light Snow
6:35 PM 19.4 °F 9.5 °F 10.4 °F 68% 29.98 in 10.0 mi WSW 8.1 mph 16.1 mph N/A Snow Light Snow
6:55 PM 19.4 °F 7.9 °F 12.2 °F 74% 29.97 in 7.0 mi West 10.4 mph - N/A Snow Light Snow
7:15 PM 19.4 °F 7.9 °F 10.4 °F 68% 29.97 in 10.0 mi WNW 10.4 mph 17.3 mph N/A Snow Light Snow
7:35 PM 19.4 °F 6.0 °F 10.4 °F 68% 29.98 in 10.0 mi West 13.8 mph 18.4 mph N/A   Overcast
7:55 PM 17.6 °F 5.0 °F 8.6 °F 68% 29.99 in 10.0 mi WNW 11.5 mph 16.1 mph N/A   Overcast
8:15 PM 17.6 °F 9.3 °F 8.6 °F 68% 29.99 in 10.0 mi West 5.8 mph - N/A   Overcast
8:35 PM 19.4 °F 7.9 °F 10.4 °F 68% 30.01 in 10.0 mi West 10.4 mph - N/A   Overcast
8:55 PM 17.6 °F 4.3 °F 8.6 °F 68% 30.02 in 10.0 mi West 12.7 mph - N/A   Overcast
9:15 PM 17.6 °F 7.3 °F 8.6 °F 68% 30.01 in 10.0 mi WNW 8.1 mph - N/A   Overcast
9:35 PM 17.6 °F 6.4 °F 8.6 °F 68% 30.03 in 10.0 mi West 9.2 mph - N/A   Overcast
9:55 PM 17.6 °F 5.0 °F 6.8 °F 63% 29.99 in 10.0 mi West 11.5 mph 17.3 mph N/A   Overcast
10:15 PM 17.6 °F 8.2 °F 8.6 °F 68% 30.01 in 10.0 mi WNW 6.9 mph 10.4 mph N/A   Mostly Cloudy
10:35 PM 17.6 °F 8.2 °F 8.6 °F 68% 30.01 in 10.0 mi WNW 6.9 mph - N/A   Overcast
10:55 PM 15.8 °F 4.2 °F 6.8 °F 68% 30.01 in 10.0 mi West 9.2 mph - N/A   Scattered Clouds
11:35 PM 15.8 °F 7.2 °F 6.8 °F 68% 30.01 in 10.0 mi WNW 5.8 mph - N/A   Mostly Cloudy
11:55 PM 14.0 °F 2.9 °F 5.0 °F 67% 30.00 in 10.0 mi NW 8.1 mph - N/A   Scattered Clouds